User: anonymous
Location: McDonald Observatory
(30.6717°N, 104.0221°W)
Time: 12:31:12
(UTC-05:00)
Language:

Cosmos 1484 Rocket - Orbit

View from above orbital plane
View from above orbital plane
View from above satellite
View from above satellite

Ground track
Ground track

The orbit data is extracted from the following two-line orbital elements,

1 14208U 83075B   14244.74053667  .00001392  00000-0  94734-4 0  1023
2 14208 097.4192 278.8717 0043200 042.5655 317.8908 15.07147663693739
Epoch (UTC): 01 September 2014 17:46:22
Eccentricity: 0.0043200
inclination: 97.4192°
perigee height: 515 km
apogee height: 575 km
right ascension of ascending node: 278.8717°
argument of perigee: 42.5655°
revolutions per day: 15.07147663
mean anomaly at epoch: 317.8908°
orbit number at epoch: 69373

The dashed part of the orbit path shows where the satellite is in the earth's shadow,  

DLR